Погода в Абалаке

Россия / Тюменская область     58°07′50″N   68°35′48″E
темп.,
°C
ветер,
м/с
пор.,
м/с
влажн.,
%
обл.,
%
осадки,
мм/ч
давл.,
гПа
погр.,
м
13 апреля, вт
вт1323:00+2сз25860 0.0 103672
02:00+1зсз25900 0.0 103686
05:000з25925 0.0 103873
08:00+4зсз378182 0.0 1038286
11:00+8з58645 0.0 1038969
14:00+10з57515 0.0 10361133
17:00+11з58485 0.0 1035962
20:00+6юз3106956 0.0 1034192
14 апреля, ср
ср1423:00+6зюз4137372 0.0 1032326
02:00+5юз51481100 0.0 1030365
05:00+5юз5149286 0.0 1028403
08:00+8зюз51386100 0.0 1027507
11:00+12з597075 0.0 1026689
14:00+16зсз575713 0.0 10251297
17:00+16зсз365710 0.0 10251452
20:00+12зюз22765 0.0 102412
15 апреля, чт
чт1523:00+9зюз35835 0.0 102470
02:00+7зюз388529 0.0 1023147
05:00+6зюз389217 0.0 1023152
08:00+10зюз4107820 0.0 1022316
11:00+15з69535 0.0 1020917
14:00+18з610395 0.0 10181430
17:00+18зюз610435 0.0 10161713
20:00+14зюз410675 0.0 1015251
16 апреля, пт
пт1623:00+12зюз413745 0.0 1013352
02:00+9з388353 0.0 1013194
05:00+7с4986100 0.0 1014479
08:00+6с4689100 0.4 1016721
11:00+5св4685100 0.9 1017862
14:00+4св5875100 0.3 10191035
17:00+1св61088100 2.4 1019741
20:00−1св61290100 0.9 1020703
17 апреля, сб
сб1723:00−3св61284100 2.1 1019733
02:00−4всв51285100 1.1 1018695
05:00−5св51179100 1.8 1017755
08:00−4всв61059100 0.1 1017873
11:00−2всв6853100 0.1 10171183
14:00−1св6839100 0.0 10161635
17:00−1св51041100 0.0 10171720
20:00−3св51041100 0.0 10181470